Time,TemperatureF,DewpointF,PressureIn,WindDirection,WindDirectionDegrees,WindSpeedMPH,WindSpeedGustMPH,Humidity,HourlyPrecipIn,Conditions,Clouds,dailyrainin,SoftwareType,DateUTC
2013-06-07 00:15:00,53.2,50.3,30.05,SE,128,0.0,0.0,90,0.00,,,0.00,Wunderground v.1.15,2013-06-07 04:15:00,
2013-06-07 00:25:00,53.5,49.7,30.05,SE,128,0.0,0.0,87,0.00,,,0.00,Wunderground v.1.15,2013-06-07 04:25:00,
2013-06-07 00:46:00,53.5,49.7,30.04,SE,128,0.0,2.0,87,0.00,,,0.00,Wunderground v.1.15,2013-06-07 04:46:00,
2013-06-07 01:36:00,53.2,50.3,30.04,SE,128,0.0,0.0,90,0.00,,,0.01,Wunderground v.1.15,2013-06-07 05:36:00,
2013-06-07 01:46:00,52.9,50.3,30.04,SE,128,0.0,0.0,91,0.00,,,0.01,Wunderground v.1.15,2013-06-07 05:46:00,
2013-06-07 02:36:00,52.2,50.5,30.02,SE,128,0.0,0.0,94,0.00,,,0.03,Wunderground v.1.15,2013-06-07 06:36:00,
2013-06-07 02:46:00,52.2,50.5,30.02,SE,128,0.0,0.0,94,0.00,,,0.04,Wunderground v.1.15,2013-06-07 06:46:00,
2013-06-07 02:56:00,52.0,50.3,30.02,SE,128,0.0,0.0,94,0.00,,,0.04,Wunderground v.1.15,2013-06-07 06:56:00,
2013-06-07 03:06:00,52.0,50.6,30.01,SE,128,0.0,0.0,95,0.00,,,0.04,Wunderground v.1.15,2013-06-07 07:06:00,
2013-06-07 03:36:00,51.9,50.5,30.01,SE,128,0.0,0.0,95,0.00,,,0.04,Wunderground v.1.15,2013-06-07 07:36:00,
2013-06-07 03:46:00,51.9,50.8,30.00,SE,128,0.0,0.0,96,0.00,,,0.04,Wunderground v.1.15,2013-06-07 07:46:00,
2013-06-07 03:56:00,51.9,50.8,30.00,SE,128,0.0,0.0,96,0.00,,,0.04,Wunderground v.1.15,2013-06-07 07:56:00,
2013-06-07 04:05:00,51.9,50.8,30.01,SE,128,0.0,0.0,96,0.00,,,0.04,Wunderground v.1.15,2013-06-07 08:05:00,
2013-06-07 04:16:00,51.9,50.8,30.01,SE,128,0.0,0.0,96,0.00,,,0.04,Wunderground v.1.15,2013-06-07 08:16:00,
2013-06-07 04:26:00,51.7,50.6,30.01,SE,128,0.0,0.0,96,0.00,,,0.04,Wunderground v.1.15,2013-06-07 08:26:00,
2013-06-07 05:36:00,51.3,50.2,30.01,SE,128,0.0,0.0,96,0.00,,,0.05,Wunderground v.1.15,2013-06-07 09:36:00,
2013-06-07 05:46:00,51.3,50.2,30.01,SE,128,0.0,0.0,96,0.00,,,0.05,Wunderground v.1.15,2013-06-07 09:46:00,
2013-06-07 05:56:00,51.3,50.2,30.01,SE,128,0.0,0.0,96,0.00,,,0.05,Wunderground v.1.15,2013-06-07 09:56:00,
2013-06-07 07:36:00,51.4,49.2,30.02,SE,128,1.0,1.0,92,0.00,,,0.06,Wunderground v.1.15,2013-06-07 11:36:00,
2013-06-07 07:46:00,51.7,50.0,30.02,SE,128,0.0,0.0,94,0.00,,,0.06,Wunderground v.1.15,2013-06-07 11:46:00,
2013-06-07 07:56:00,51.7,50.3,30.02,SE,128,0.0,0.0,95,0.00,,,0.06,Wunderground v.1.15,2013-06-07 11:56:00,
2013-06-07 08:05:00,51.9,50.5,30.02,SE,128,0.0,0.0,95,0.00,,,0.06,Wunderground v.1.15,2013-06-07 12:05:00,
2013-06-07 08:16:00,52.2,50.8,30.03,SE,128,0.0,0.0,95,0.00,,,0.06,Wunderground v.1.15,2013-06-07 12:16:00,
2013-06-07 08:26:00,52.5,51.1,30.03,SE,128,0.0,0.0,95,0.00,,,0.06,Wunderground v.1.15,2013-06-07 12:26:00,
2013-06-07 09:05:00,52.6,50.6,30.04,SE,128,0.0,0.0,93,0.00,,,0.06,Wunderground v.1.15,2013-06-07 13:05:00,
2013-06-07 09:15:00,52.8,50.8,30.04,SE,128,0.0,0.0,93,0.00,,,0.06,Wunderground v.1.15,2013-06-07 13:15:00,
2013-06-07 09:25:00,52.9,50.3,30.04,SE,128,0.0,0.0,91,0.00,,,0.06,Wunderground v.1.15,2013-06-07 13:25:00,
2013-06-07 09:46:00,53.2,49.4,30.04,SE,128,0.0,0.0,87,0.00,,,0.06,Wunderground v.1.15,2013-06-07 13:46:00,
2013-06-07 10:26:00,53.5,50.6,30.04,SE,128,0.0,0.0,90,0.00,,,0.06,Wunderground v.1.15,2013-06-07 14:26:00,
2013-06-07 10:56:00,53.5,49.4,30.04,SE,128,0.0,0.0,86,0.00,,,0.07,Wunderground v.1.15,2013-06-07 14:56:00,
2013-06-07 11:15:00,50.8,44.5,30.05,SE,132,5.0,5.0,79,0.00,,,0.07,Wunderground v.1.15,2013-06-07 15:15:00,
2013-06-07 11:25:00,50.4,46.4,30.05,ESE,105,3.0,4.0,86,0.00,,,0.07,Wunderground v.1.15,2013-06-07 15:25:00,
2013-06-07 11:46:00,49.9,45.9,30.06,ESE,108,1.0,1.0,86,0.00,,,0.07,Wunderground v.1.15,2013-06-07 15:46:00,
2013-06-07 11:56:00,49.9,46.2,30.06,ESE,108,1.0,1.0,87,0.00,,,0.07,Wunderground v.1.15,2013-06-07 15:56:00,
2013-06-07 12:35:00,51.4,46.7,30.05,ESE,104,1.0,1.0,84,0.00,,,0.07,Wunderground v.1.15,2013-06-07 16:35:00,
2013-06-07 12:46:00,51.6,45.6,30.04,ESE,104,0.0,0.0,80,0.00,,,0.07,Wunderground v.1.15,2013-06-07 16:46:00,
2013-06-07 12:56:00,52.2,47.5,30.04,ESE,104,0.0,2.0,84,0.00,,,0.07,Wunderground v.1.15,2013-06-07 16:56:00,
2013-06-07 14:26:00,51.7,47.0,30.02,ENE,75,1.0,2.0,84,0.00,,,0.07,Wunderground v.1.15,2013-06-07 18:26:00,
2013-06-07 15:06:00,52.8,47.5,30.01,ENE,75,0.0,0.0,82,0.00,,,0.07,Wunderground v.1.15,2013-06-07 19:06:00,
2013-06-07 15:16:00,52.6,48.2,30.02,ENE,75,0.0,0.0,85,0.00,,,0.07,Wunderground v.1.15,2013-06-07 19:16:00,
2013-06-07 16:05:00,51.6,48.8,30.01,WNW,289,2.0,2.0,90,0.00,,,0.07,Wunderground v.1.15,2013-06-07 20:05:00,
2013-06-07 16:16:00,51.3,48.8,30.01,WNW,289,1.0,2.0,91,0.00,,,0.08,Wunderground v.1.15,2013-06-07 20:16:00,
2013-06-07 17:56:00,50.2,49.1,29.99,WNW,289,0.0,0.0,96,0.05,,,0.20,Wunderground v.1.15,2013-06-07 21:56:00,
2013-06-07 18:36:00,49.6,48.5,29.97,ENE,71,0.0,0.0,96,0.06,,,0.23,Wunderground v.1.15,2013-06-07 22:36:00,
2013-06-07 18:46:00,49.5,48.4,29.97,ENE,71,0.0,0.0,96,0.05,,,0.24,Wunderground v.1.15,2013-06-07 22:46:00,
2013-06-07 19:36:00,49.4,48.3,29.97,ESE,109,0.0,0.0,96,0.05,,,0.27,Wunderground v.1.15,2013-06-07 23:36:00,
2013-06-07 19:46:00,49.4,48.3,29.97,ESE,120,1.0,1.0,96,0.04,,,0.27,Wunderground v.1.15,2013-06-07 23:46:00,
2013-06-07 20:05:00,49.2,47.8,29.97,ENE,65,3.0,4.0,95,0.00,,,0.28,Wunderground v.1.15,2013-06-08 00:05:00,
2013-06-07 20:25:00,49.1,48.0,29.95,ESE,103,1.0,2.0,96,0.00,,,0.29,Wunderground v.1.15,2013-06-08 00:25:00,
2013-06-07 21:26:00,49.1,48.0,29.95,East,98,0.0,2.0,96,0.08,,,0.35,Wunderground v.1.15,2013-06-08 01:26:00,
2013-06-07 22:06:00,49.4,48.3,29.94,East,84,0.0,0.0,96,0.15,,,0.44,Wunderground v.1.15,2013-06-08 02:06:00,
2013-06-07 22:16:00,49.2,48.1,29.93,East,84,0.0,0.0,96,0.10,,,0.46,Wunderground v.1.15,2013-06-08 02:16:00,
2013-06-07 22:45:00,49.9,48.8,29.92,ESE,105,3.0,7.0,96,0.17,,,0.51,Wunderground v.1.15,2013-06-08 02:45:00,